Theta_e
322 320 319 318 318 321 326 327 328 330 328 327 327 326 325 324 324 324 324 324 324 324 325 325 325 324 324 324 324 324 326 328
325 324 323 323 322 320 321 323 325 326 326 325 326 326 325 324 324 324 324 324 325 326 326 325 326 326 326 326 327 327 327 326
327 326 325 326 326 324 323 323 323 323 323 324 325 325 325 325 325 325 326 326 327 327 327 328 327 327 328 328 329 330 331 332
329 327 327 327 327 327 327 326 325 324 324 325 325 326 326 327 328 329 329 330 330 330 331 331 330 330 329 330 330 331 332 333
333 330 327 327 328 328 329 328 328 328 328 328 328 329 330 331 332 332 332 332 333 333 332 332 333 333 334 334 334 333 333 334
341 336 330 328 328 329 329 329 330 330 330 330 331 332 332 333 332 331 331 331 333 331 328 330 331 331 332 333 333 333 332 332
343 340 333 331 331 331 330 330 331 331 331 332 333 333 333 332 329 326 323 323 326 330 329 327 328 328 328 330 331 330 330 329
344 342 340 338 337 333 332 332 332 332 333 334 334 333 332 323 320 319 317 319 325 327 328 325 327 327 328 328 332 332 331 330
343 343 341 340 340 337 334 334 334 334 335 334 334 330 322 318 317 316 314 316 322 324 327 327 327 331 331 330 330 330 330 330
338 343 343 340 337 336 336 335 335 335 334 334 329 325 323 318 315 316 315 317 320 323 325 327 327 327 329 326 328 328 328 328
339 342 342 340 336 336 335 334 334 335 334 331 329 327 323 317 314 317 318 317 317 321 321 323 326 323 325 326 326 327 327 324
341 342 342 339 335 335 334 333 333 331 331 331 328 325 320 314 312 314 317 317 318 320 320 320 321 322 321 322 322 323 323 322
339 341 340 335 335 332 332 332 330 328 328 325 323 319 315 313 311 312 313 317 318 319 320 320 320 319 320 319 320 320 320 320
339 341 341 335 333 331 329 327 326 326 322 321 317 317 314 312 311 310 310 313 315 315 315 315 316 317 317 318 317 316 317 317
337 338 339 335 332 329 327 326 325 325 324 322 321 316 314 314 313 313 310 309 310 311 312 312 313 314 316 317 316 315 314 313
333 333 333 329 329 329 327 326 324 324 323 321 321 318 316 315 315 315 315 312 309 308 308 309 309 310 313 315 316 315 312 310
331 330 329 328 323 322 322 321 320 318 320 320 319 316 315 315 314 314 313 312 309 307 307 306 306 307 310 311 314 314 313 312
328 328 327 323 319 318 318 319 317 316 315 314 314 314 315 314 314 312 312 310 307 305 304 304 305 305 305 308 310 313 313 312
328 324 320 318 318 317 317 317 315 315 316 315 315 314 314 314 313 312 311 310 310 308 305 303 303 304 304 306 307 308 313 313
322 320 317 313 314 315 316 317 316 317 316 316 316 315 314 314 312 311 311 310 309 309 309 307 304 303 304 304 306 308 307 310
Wind_Speed
23 22 22 21 21 21 20 19 18 17 16 15 13 12 10 9 9 8 7 7 7 7 7 6 6 6 7 7 7 8 8 8
22 22 23 22 21 20 20 20 18 17 16 15 14 13 11 10 10 9 8 8 8 7 7 8 8 8 9 9 9 8 7 8
24 24 24 23 22 21 20 19 18 17 16 15 15 13 12 11 10 10 10 9 9 9 9 10 10 10 10 11 10 11 10 9
26 26 26 24 23 22 21 20 20 18 18 16 15 14 13 12 11 11 11 11 11 10 10 12 12 11 12 12 12 12 11 10
27 28 27 26 25 24 23 21 20 20 18 17 15 14 14 13 12 12 12 12 12 9 9 10 11 11 8 10 10 9 9 8
29 29 28 27 26 25 23 22 22 20 19 17 16 15 14 13 13 13 13 12 12 9 7 11 11 10 10 11 8 6 4 2
29 29 28 27 27 25 24 22 21 20 19 18 16 14 12 12 12 12 11 10 11 10 9 10 10 9 9 8 9 7 7 6
29 29 27 25 26 26 23 22 21 21 19 17 15 13 11 11 10 9 10 10 10 9 10 9 9 9 6 8 6 9 9 9
27 25 24 22 22 21 20 20 20 19 17 15 15 9 8 9 10 8 8 8 9 9 9 9 9 6 8 9 10 11 11 11
26 29 26 19 17 19 18 18 21 17 16 17 6 8 8 8 9 9 6 6 6 7 8 9 10 11 11 9 12 10 11 10
27 26 25 18 20 19 19 19 18 19 15 8 8 7 9 9 9 9 7 6 6 7 6 7 9 10 11 12 11 12 14 12
24 24 23 20 19 18 13 13 15 4 6 7 3 10 13 11 10 10 9 8 8 8 7 7 9 13 14 13 13 16 17 14
20 18 23 18 16 11 8 10 5 4 11 10 12 14 14 13 12 10 10 10 11 10 10 9 11 13 14 14 14 16 16 16
11 16 24 20 15 14 10 10 6 6 5 6 9 10 13 12 13 12 13 13 13 14 13 12 13 16 17 17 13 13 16 16
9 15 20 17 14 12 9 4 2 6 7 1 4 8 11 11 12 12 11 12 13 14 14 13 14 17 21 15 8 9 18 13
5 8 15 15 13 8 3 2 1 7 9 10 9 11 10 11 9 10 11 13 13 13 13 14 15 19 24 26 20 13 13 13
4 5 15 14 14 13 11 10 7 1 2 5 9 12 11 8 10 10 11 12 12 13 13 14 15 19 22 28 30 20 18 14
13 15 15 14 14 11 8 5 5 8 4 6 6 6 6 7 9 11 9 9 10 11 13 15 15 17 22 26 31 29 26 22
17 15 14 11 9 8 8 8 6 6 6 5 5 6 6 8 10 11 11 10 9 10 11 13 15 17 18 24 27 30 32 25
13 11 9 6 3 3 4 5 6 8 7 6 7 8 8 10 11 12 11 9 10 10 12 13 13 15 17 20 23 26 27 31
Wind_Direction
193 195 195 196 200 204 205 204 204 204 202 204 202 202 203 205 207 205 204 209 205 196 205 205 199 213 216 218 218 221 227 238
203 202 202 200 200 201 202 204 204 205 207 206 207 209 210 215 219 220 221 226 231 232 223 225 225 224 235 235 235 240 233 235
211 211 208 205 204 204 204 205 206 206 207 210 210 214 218 224 230 233 238 241 246 251 254 248 243 240 242 245 248 250 255 248
216 218 216 212 210 210 210 208 210 209 208 212 215 219 224 229 235 242 249 254 256 258 266 272 266 259 256 256 250 257 261 263
225 225 222 220 217 215 215 213 214 213 214 216 220 225 230 236 243 249 254 258 258 262 281 289 281 278 273 262 260 257 261 251
230 230 226 225 226 223 221 219 219 219 220 221 224 229 236 243 250 254 258 259 255 245 245 260 264 272 278 265 268 264 225 238
235 232 229 228 230 230 228 225 225 226 225 226 228 232 238 245 254 258 261 261 257 249 239 255 258 258 267 266 258 230 190 197
241 234 234 234 235 231 228 228 227 228 229 228 227 232 241 251 257 267 275 268 263 249 246 246 248 245 244 240 226 204 195 202
251 250 248 250 246 234 226 229 232 232 228 228 227 237 255 270 274 276 274 262 254 255 244 236 240 225 227 213 218 208 227 229
258 249 244 245 234 226 225 230 231 229 228 229 207 236 260 274 279 279 277 267 260 248 237 235 241 237 239 233 238 225 227 216
260 249 246 232 218 219 226 228 227 225 214 193 230 266 291 294 285 285 278 271 259 242 233 229 225 233 230 232 216 214 201 218
261 247 243 235 218 217 225 237 228 214 173 259 295 312 314 311 303 292 282 267 251 241 237 234 235 232 225 212 212 209 205 209
260 250 238 243 228 214 184 204 217 324 321 340 338 329 324 321 314 308 292 278 262 251 246 245 243 231 226 198 205 210 210 208
259 238 225 224 217 161 156 154 148 230 335 359 353 341 331 324 318 315 305 278 269 265 258 244 235 226 208 203 175 187 191 196
234 227 219 197 166 157 151 112 215 223 226 256 343 3 337 322 309 304 301 290 279 267 261 246 232 224 220 206 191 203 195 206
266 220 183 145 126 133 163 240 55 261 256 295 307 337 332 316 307 304 301 295 285 274 264 252 239 229 223 221 221 215 188 199
75 145 138 121 116 108 107 109 96 40 221 255 244 254 257 269 307 316 314 298 289 281 270 259 245 237 231 228 223 227 219 207
93 112 123 121 123 132 151 224 164 188 221 239 238 250 261 289 311 324 319 307 301 287 276 268 258 247 237 236 233 228 226 223
117 124 128 133 152 176 182 182 187 216 231 243 260 267 285 297 311 316 320 328 322 311 297 283 273 263 252 244 240 239 242 241
123 129 141 148 174 203 221 228 230 233 240 253 266 275 284 288 307 313 305 305 316 313 311 303 290 276 266 257 249 247 245 244